P/2004 R3 (LINEAR-NEAT)                                               

Epoch 2004 June 4.0 TT = JDT 2453160.5  

T 2004 May 24.48313 TT                                  Nakano

q   2.1414936            (2000.0)            P               Q

n   0.13114257     Peri.    5.29025     +0.80945349     +0.58003531

a   3.8368391      Node   318.80963     -0.54369007     +0.68161350

e   0.4418599      Incl.    7.97291     -0.22177952     +0.44605164

P   7.52 (+/- 0.13 day)

From 140 observations 2004 Sept. 10-Nov. 16, mean residual 0".60.

Residuals in seconds of arc 

2004/                     040917 A46  0.7-  0.8-    041004 A13  0.2-  0.3-  

040910 704  0.7-  0.0     040917 A46  0.2-  0.6-    041004 A13  0.4-  0.7+  

040910 704  0.9+  1.0+    040917 J87  0.4+  0.2-    041005 D74  0.4+  0.7+  

040910 704  0.8+  1.2+    040917 J87  1.4-  1.6-    041005 D74  0.5+  1.0-  

040910 704  0.8+  0.8+    040917 246  0.6-  0.2+    041005 D74  0.2+  0.2-  

040913 644  0.5-  0.2+    040917 246  0.3-  0.1+    041006 360  0.0   0.8+  

040913 704  0.4+  1.3+    040917 246  0.2+  0.5+    041006 360  0.3+  0.3+  

040913 704  0.2+  0.2+    040917 246  0.1-  0.3+    041006 360  0.1-  0.4+  

040913 644  0.2+  0.4+    040917 246  0.3+  0.1-    041009 699  0.6+  0.7+  

040913 704  0.1+  0.1-    040917 246  0.3-  0.5+    041009 699  0.3-  0.3+  

040913 644  0.1-  0.2+    040917 246  0.1-  0.3+    041009 699  0.2-  0.7-  

040915 699  0.3+  1.4-    040918 170  0.6-  0.8-    041009 699  0.7+  1.0-  

040915 699  0.5-  0.3-    040918 170  0.4-  0.9-    041010 704  0.0   0.8+  

040915 699  1.0-  1.6-    040918 170  0.1-  0.9-    041010 704  0.8+  1.5+  

040915 699  0.1-  0.8-    040918 204  0.2+  0.6+    041010 704  0.2+  0.6+  

040915 J95  1.0-  0.3-    040918 204  0.1-  0.0     041010 704  0.3-  0.2-  

040915 J95  0.9-  1.1-    040918 704 (2.8-  3.3-)   041010 704  0.1-  0.7+  

040915 J95  0.8+  0.6-    040918 704  0.2+  1.4-    041010 213  0.6+  0.4-  

040915 J95  0.9-  1.2-    040918 704  0.9-  1.2+    041010 213  0.9+  1.4-  

040916 G90  0.0   0.6+    040918 704  0.2-  0.0     041010 213  0.6+  1.1-  

040916 649  0.0   0.3-    040918 215  0.5+  0.4+    041011 170  0.1-  1.1-  

040916 G90  0.2-  0.2+    040919 118  0.6-  0.4-    041011 170  0.3-  0.8-  

040916 G90  0.0   0.1+    040919 118  0.3-  0.5-    041011 170  0.0   0.2-  

040916 649  0.3-  0.5-    040919 D74  0.9+  0.6+    041012 360  0.1+  0.6+  

040916 649  0.3+  0.1-    040919 D74  0.1+  0.5+    041012 360  0.2-  0.1+  

040916 673  0.5+  0.5+    040919 D74  1.1-  0.2-    041012 360  0.1-  0.2+  

040916 673  0.5+  0.3+    040922 704  0.0   0.5-    041015 704  0.6+  1.2-  

040916 673  0.3+  0.5+    040922 704  0.0   0.3-    041015 704  0.0   0.5+  

040916 673  0.1+  0.3+    040922 704  0.8-  0.5-    041015 704 (2.1-  0.5+) 

040916 673  0.2+  0.5+    040922 704  0.2-  1.1+    041018 118  0.4+  0.3-  

040916 673  0.6+  0.5+    040922 213  0.6-  0.1+    041018 118  0.1-  0.6-  

040916 704  0.5+  0.4-    040922 213  0.5-  0.1+    041020 213  0.5-  0.6+  

040916 673  0.3+  0.6+    040922 213  0.8-  0.1+    041020 213  0.9-  0.5+  

040916 854  0.1+  0.2+    040924 170  0.2-  0.3-    041021 360  0.1+  0.3+  

040916 704  0.7+  0.5-    040924 170  0.1-  0.5-    041021 360  0.3-  0.0   

040916 704  0.8+  0.4+    040924 170  0.2-  0.5-    041105 213  0.5-  1.1-  

040916 854  0.7-  0.2+    040924 170  0.1-  0.6-    041105 213  0.2-  0.5-  

040916 854  0.5+  0.1+    040925 213  0.0   0.0     041105 213  0.1-  0.4-  

040916 704  1.3+  0.2+    040930 118  0.1-  0.4-    041106 360  0.6-  0.0   

040916 704  1.5+  0.3+    041001 118  0.1+  0.3-    041106 360  0.1-  0.3+  

040916 734 (2.4-  0.5-)   041001 673  0.2+  0.9+    041107 360  0.1-  0.1+  

040916 704  0.1-  0.3+    041001 673  0.4+  0.6+    041107 360  0.2-  0.1+  

040916 734  1.7+  0.1-    041001 673  0.4+  0.5+    041109 850  0.0   0.4-  

040916 704  0.2-  1.9+    041001 673  0.1+  0.9+    041109 850 (0.4-  3.1-) 

040916 704  0.1+  0.7+    041003 213  0.2+  1.4+    041110 850 (0.8-  2.5+) 

040917 A46  0.5-  1.3-    041003 213  0.0   0.8+    041110 850  0.6+  0.2+  

040917 A46  0.6-  0.3-    041003 213  0.4-  0.8+    041116 204  0.2-  0.3+  

040917 A46  0.4-  1.1-    041004 A13  0.5-  0.0     041116 204  0.9+  0.2+  

040917 A46  0.0   1.4-    041004 A13  0.1-  0.7+                            



NAKANO

         **** Don't distribute anyone except personal use only ****

                (C) Copyright 2005 OAA/ComputingSection

write mail from CFAD0::NAKANO on 2005-01-04 01:58:32(JST).

 





    P/2004 R3 (LINEAR-NEAT)                                               

T 2004 May 24.48405 TT                                  Nakano

q   2.1415505            (2000.0)            P               Q

n   0.13114568     Peri.    5.29455     +0.80947486     +0.58000552

a   3.8367785      Node   318.80746     -0.54366673     +0.68163722

e   0.4418363      Incl.    7.97255     -0.22175873     +0.44605415

P   7.52 (+/- 0.13 day)

From 138 observations 2004 Sept. 10-Nov. 10.



NAKANO

         **** Don't distribute anyone except personal use only ****

                (C) Copyright 2004 OAA/ComputingSection

write mail from CFAD0::NAKANO on 2004-12-09 01:41:38(JST).

 



◎P/2004 R3の軌道と予報位置です



 久万の中村彰正氏によって,10月21日,11月6日と7日に観測されています.

氏のCCD全光度は,それぞれ,18.6等,19.6等,19.6等でした.



    P/2004 R3 (LINEAR-NEAT)                                               

T 2004 May 24.45894 TT                                  Nakano

q   2.1415505            (2000.0)            P               Q

n   0.13112199     Peri.    5.28280     +0.80939064     +0.58012287

a   3.8372406      Node   318.81087     -0.54376296     +0.68155183

e   0.4419035      Incl.    7.97320     -0.22183022     +0.44603202

P   7.52 (+/- 0.15 day)

From 132 observations 2004 Sept. 10-Nov. 7.

 

Date/        TT  R.A.(2000) Decl.     Delta   r     Daily motion  Mag.  Moon Age

              h    h  m       。  ,                      ,  / PA 。  m1      。

2004 Nov.  5 12  00 04.72  +12 12.2   1.627  2.480     2.6 / 203  19.0  128  .48

           6 12  00 04.65  +12 09.7   1.638  2.483     2.4 / 195  19.0  140  .38

           7 12  00 04.61  +12 07.4   1.650  2.487     2.2 / 187  19.0  151  .29

           8 12  00 04.59  +12 05.1   1.661  2.490     2.1 / 177  19.1  162  .20

           9 12  00 04.60  +12 03.0   1.673  2.494     2.1 / 166  19.1  167  .12

          10 12  00 04.64  +12 01.0   1.685  2.498     2.1 / 155  19.1  161  .06

          11 12  00 04.70  +11 59.1   1.697  2.501     2.2 / 145  19.1  150  .02

          12 12  00 04.78  +11 57.3   1.709  2.505     2.3 / 135  19.2  136  .00

          13 12  00 04.89  +11 55.7   1.722  2.509     2.5 / 127  19.2  122  .01

          14 12  00 05.03  +11 54.1   1.735  2.512     2.8 / 121  19.2  108  .05

          15 12  00 05.19  +11 52.7   1.747  2.516     3.0 / 115  19.2   93  .12

          16 12  00 05.38  +11 51.4   1.760  2.520     3.3 / 110  19.2   79  .20

          17 12  00 05.59  +11 50.3   1.774  2.524     3.6 / 107  19.3   65  .31

          18 12  00 05.83  +11 49.2   1.787  2.527     3.9 / 103  19.3   51  .42

          19 12  00 06.09  +11 48.3   1.800  2.531     4.3 / 101  19.3   38  .53

          20 12  00 06.37  +11 47.5   1.814  2.535     4.6 /  98  19.3   26  .64

          21 12  00 06.68  +11 46.9   1.828  2.539     4.9 /  96  19.4   16  .74

          22 12  00 07.02  +11 46.4   1.841  2.542     5.2 /  94  19.4   13  .82

          23 12  00 07.37  +11 46.0   1.855  2.546     5.6 /  93  19.4   20  .89

          24 12  00 07.75  +11 45.7   1.870  2.550     5.9 /  91  19.4   31  .95

          25 12  00 08.15  +11 45.6   1.884  2.554     6.2 /  90  19.4   42  .98

          26 12  00 08.57  +11 45.6   1.898  2.558     6.5 /  89  19.5   54 1.00

          27 12  00 09.02  +11 45.7   1.913  2.561     6.9 /  88  19.5   66 1.00

          28 12  00 09.49  +11 46.0   1.927  2.565     7.2 /  87  19.5   77  .97

          29 12  00 09.98  +11 46.4   1.942  2.569     7.5 /  86  19.5   89  .93

          30 12  00 10.48  +11 46.9   1.957  2.573     7.8 /  85  19.6  100  .88

     Dec.  1 12  00 11.01  +11 47.5   1.972  2.577     8.1 /  85  19.6  112  .81

           2 12  00 11.56  +11 48.3   1.987  2.581     8.4 /  84  19.6  123  .74

           3 12  00 12.14  +11 49.2   2.002  2.585     8.7 /  83  19.6  135  .65

           4 12  00 12.73  +11 50.2   2.017  2.588     9.0 /  83  19.7  146  .55

           5 12  00 13.34  +11 51.4   2.033  2.592     9.3 /  82  19.7  157  .45

NAKANO

         **** Don't distribute anyone except personal use only ****

                (C) Copyright 2004 OAA/ComputingSection

write mail from CFAD0::NAKANO on 2004-11-10 03:29:33(JST).

 

    P/2004 R3 (LINEAR-NEAT)                                               

T 2004 May 24.42891 TT                                  Nakano

q   2.1416233            (2000.0)            P               Q

n   0.13109756     Peri.    5.27128     +0.80931386     +0.58022956

a   3.8377172      Node   318.81477     -0.54385007     +0.68147147

e   0.4419539      Incl.    7.97405     -0.22189677     +0.44601603

P   7.52 (+/- 0.21 day)

From 128 observations 2004 Sept. 10-Oct. 21.



NAKANO

         **** Don't distribute anyone except personal use only ****

                (C) Copyright 2004 OAA/ComputingSection

write mail from CFAD0::NAKANO on 2004-11-03 02:43:59(JST).

 



    P/2004 R3 (LINEAR-NEAT)                                               

T 2004 May 24.35932 TT                                  Nakano

q   2.1447126            (2000.0)            P               Q

n   0.13125149     Peri.    5.31688     +0.81011402     +0.57910493

a   3.8347161      Node   318.84798     -0.54288395     +0.68213412

e   0.4407115      Incl.    7.98323     -0.22134204     +0.44646447

P   7.51 (+/- 2.27 day)

From 82 observations 2004 Sept. 10-24.



NAKANO

